Погода в Тросне

Россия / Орловская область     52°26′54″N   35°46′44″E
темп.,
°C
ветер,
м/с
пор.,
м/с
влажн.,
%
обл.,
%
осадки,
мм/ч
давл.,
гПа
погр.,
м
11 апреля, вс
вс1100:00+4юз22620 0.0 102713
03:00+3з22640 0.0 102811
06:00+2зюз11660 0.0 102910
09:00+7вюв00530 0.0 1030191
12:00+11всв22420 0.0 1030946
15:00+13св33380 0.0 10291167
18:00+12всв35475 0.0 1029244
21:00+8всв366276 0.0 103094
12 апреля, пн
пн1200:00+6всв41069100 0.0 1030182
03:00+4св41174100 0.0 1030212
06:00+4св41271100 0.0 1029289
09:00+6всв61074100 0.0 1028453
12:00+11в5674100 0.0 1027520
15:00+15в576446 0.0 1025772
18:00+15в4870100 0.0 1024348
21:00+11всв4785100 0.0 1024120
13 апреля, вт
вт1300:00+10юв41180100 0.0 1023178
03:00+10юв3480100 0.0 102362
06:00+9юв3583100 0.0 102379
09:00+13юв596826 0.0 1023331
12:00+16ююв695796 0.0 1023920
15:00+19ююв69415 0.0 10211847
18:00+18юв594596 0.0 1021300
21:00+13вюв410625 0.0 1021141
14 апреля, ср
ср1400:00+12юв4106515 0.0 1021193
03:00+10юв497518 0.0 1020139
06:00+10юв3879100 0.0 1020126
09:00+13вюв4568100 0.0 1020247
12:00+18юв574732 0.0 10181387
15:00+19юв683179 0.0 10172222
18:00+16юв51049100 0.0 1017573
21:00+13вюв3357100 0.0 101732
15 апреля, чт
чт1500:00+12в2363100 0.0 101631
03:00+11юв356569 0.0 101585
06:00+8ююз229098 0.0 101637
09:00+12зюз2272100 0.0 1016374
12:00+15зсз215758 0.0 1015926
15:00+17ссв124898 0.0 10141569
18:00+14ююз2271100 0.7 1015115
21:00+12ссв5879100 1.1 1014290